DW3499 Weather Reports


Display with metric or nautical units.
time (UTC)temp
F
wind
direction
speed
MPH
gust
MPH
rain 1hr
in
rain 24hr
in
rain mn
in
humidity
%
barometer
mb
20210917171312 62 139 1.0 4.0 0.00 0.00 0.00 75 1014.2
20210917170750 62 306 1.0 3.0 0.00 0.00 0.00 73 1014.2
20210917170228 62 326 1.0 1.0 0.00 0.00 0.00 74 1014.2
20210917165708 63 252 1.0 3.0 0.00 0.00 0.00 74 1014.2
20210917165145 63 234 1.0 2.0 0.00 0.00 0.00 75 1014.1
20210917164624 62 335 1.0 1.0 0.00 0.00 0.00 76 1014.2
20210917164102 62 0 0.0 0.0 0.00 0.00 0.00 78 1014.1
20210917163540 61 0 0.0 0.0 0.00 0.00 0.00 78 1014.1
20210917163018 61 290 1.0 1.0 0.00 0.00 0.00 79 1014.0
20210917162455 60 0 0.0 0.0 0.00 0.00 0.00 79 1014.1
20210917161934 60 280 1.0 1.0 0.00 0.00 0.00 80 1014.0
20210917161412 60 0 0.0 1.0 0.00 0.00 0.00 79 1013.9
20210917160850 60 0 0.0 0.0 0.00 0.00 0.00 79 1013.9
20210917160328 60 0 0.0 0.0 0.00 0.00 0.00 80 1013.8
20210917155806 59 0 0.0 0.0 0.00 0.00 0.00 81 1013.8
20210917155244 59 277 1.0 1.0 0.00 0.00 0.00 81 1013.7
20210917154724 59 0 0.0 1.0 0.00 0.00 0.00 81 1013.7
20210917154201 59 0 0.0 0.0 0.00 0.00 0.00 82 1013.7
20210917153640 59 0 0.0 0.0 0.00 0.00 0.00 83 1013.7
20210917153118 58 0 0.0 0.0 0.00 0.00 0.00 83 1013.6
20210917152555 58 0 0.0 0.0 0.00 0.00 0.00 83 1013.6
20210917152034 58 0 0.0 1.0 0.00 0.00 0.00 84 1013.6
20210917151514 58 0 0.0 1.0 0.00 0.00 0.00 84 1013.6
20210917150952 57 296 1.0 1.0 0.00 0.00 0.00 84 1013.6
20210917150430 57 294 1.0 1.0 0.00 0.00 0.00 84 1013.6
20210917145908 58 0 0.0 0.0 0.00 0.00 0.00 84 1013.5
20210917145346 57 266 1.0 1.0 0.00 0.00 0.00 84 1013.5
20210917144824 57 0 0.0 0.0 0.00 0.00 0.00 85 1013.5
20210917144304 57 0 0.0 0.0 0.00 0.00 0.00 85 1013.5
20210917143742 57 0 0.0 0.0 0.00 0.00 0.00 85 1013.4
20210917143220 57 0 0.0 1.0 0.00 0.00 0.00 85 1013.4
20210917142658 57 0 0.0 0.0 0.00 0.00 0.00 85 1013.4
20210917142136 57 0 0.0 0.0 0.00 0.00 0.00 86 1013.2
20210917141613 57 0 0.0 1.0 0.00 0.00 0.00 86 1013.2
20210917141052 57 0 0.0 1.0 0.00 0.00 0.00 86 1013.2
20210917140532 57 292 1.0 1.0 0.00 0.00 0.00 86 1013.1
20210917140010 57 272 1.0 1.0 0.00 0.00 0.00 86 1013.0
20210917135448 57 0 0.0 0.0 0.00 0.00 0.00 86 1013.0
20210917134926 57 0 0.0 0.0 0.00 0.00 0.00 86 1012.9
20210917134404 57 0 0.0 0.0 0.00 0.00 0.00 86 1012.8
20210917133842 57 273 1.0 1.0 0.00 0.00 0.00 86 1012.9
20210917133320 56 0 0.0 0.0 0.00 0.00 0.00 86 1012.7
20210917132758 56 277 1.0 1.0 0.00 0.00 0.00 86 1012.8
20210917132236 56 0 0.0 1.0 0.00 0.00 0.00 86 1012.7
20210917131714 56 0 0.0 1.0 0.00 0.00 0.00 86 1012.6
20210917131151 56 265 1.0 3.0 0.00 0.00 0.00 86 1012.6
20210917130629 56 0 0.0 1.0 0.00 0.00 0.00 86 1012.5
20210917130108 56 264 1.0 1.0 0.00 0.00 0.00 86 1012.4
20210917125546 56 0 0.0 1.0 0.00 0.00 0.00 86 1012.3
20210917125024 56 0 0.0 1.0 0.00 0.00 0.00 86 1012.4
20210917124502 56 0 0.0 1.0 0.00 0.00 0.00 86 1012.2
20210917123940 56 290 1.0 4.0 0.00 0.00 0.00 86 1012.2
20210917123418 56 0 0.0 2.0 0.00 0.00 0.00 86 1012.2
20210917122856 57 0 0.0 1.0 0.00 0.00 0.00 86 1012.2
20210917122334 57 267 1.0 1.0 0.00 0.00 0.00 86 1012.1
20210917121812 56 0 0.0 1.0 0.00 0.00 0.00 86 1012.0
20210917121250 56 0 0.0 2.0 0.00 0.00 0.00 86 1012.0
20210917120728 56 0 0.0 2.0 0.00 0.00 0.00 86 1011.9
20210917120205 57 0 0.0 1.0 0.00 0.00 0.00 86 1011.7
20210917115644 57 198 1.0 1.0 0.00 0.00 0.00 86 1011.7
20210917115121 57 0 0.0 1.0 0.00 0.00 0.00 86 1011.5
20210917114600 57 0 0.0 2.0 0.00 0.00 0.00 86 1011.5
20210917114038 57 286 1.0 1.0 0.00 0.00 0.00 86 1011.5
20210917113516 57 0 0.0 0.0 0.00 0.00 0.00 86 1011.4
20210917112954 57 0 0.0 0.0 0.00 0.00 0.00 86 1011.4
20210917112431 57 256 1.0 1.0 0.00 0.00 0.00 86 1011.3
20210917111910 57 0 0.0 1.0 0.00 0.00 0.00 86 1011.3
20210917111348 57 0 0.0 1.0 0.00 0.00 0.00 86 1011.3
20210917110826 57 275 1.0 1.0 0.00 0.00 0.00 87 1011.2
20210917110303 57 284 1.0 1.0 0.00 0.00 0.00 87 1011.2
20210917105741 57 0 0.0 0.0 0.00 0.00 0.00 87 1011.2
20210917105219 57 0 0.0 3.0 0.00 0.00 0.00 87 1011.2
20210917104658 57 0 0.0 2.0 0.00 0.00 0.00 87 1011.2
20210917104136 57 0 0.0 1.0 0.00 0.00 0.00 87 1011.2
20210917103613 56 309 1.0 1.0 0.00 0.00 0.00 87 1011.3
20210917103052 56 0 0.0 1.0 0.00 0.00 0.00 87 1011.2
20210917102529 56 0 0.0 2.0 0.00 0.00 0.00 87 1011.2
20210917102010 56 0 0.0 0.0 0.00 0.00 0.00 87 1011.2
20210917101447 56 322 1.0 1.0 0.00 0.00 0.00 87 1011.2
20210917100926 56 300 1.0 1.0 0.00 0.00 0.00 87 1011.4
20210917100404 56 261 1.0 3.0 0.00 0.00 0.00 87 1011.4
20210917095842 56 318 1.0 3.0 0.00 0.00 0.00 87 1011.5
20210917095320 56 273 1.0 2.0 0.00 0.00 0.00 87 1011.5
20210917094758 56 301 1.0 1.0 0.00 0.00 0.00 87 1011.4
20210917094236 56 297 1.0 1.0 0.00 0.00 0.00 87 1011.6
20210917093714 56 270 1.0 1.0 0.00 0.00 0.00 87 1011.4
20210917093152 56 0 0.0 1.0 0.00 0.00 0.00 87 1011.4
20210917092629 56 246 1.0 2.0 0.00 0.00 0.00 87 1011.4
20210917092107 56 280 1.0 1.0 0.00 0.00 0.00 87 1011.5
20210917091545 56 291 1.0 1.0 0.00 0.00 0.00 87 1011.6
20210917091026 56 0 0.0 1.0 0.00 0.00 0.00 87 1011.7
20210917090506 56 287 1.0 3.0 0.00 0.00 0.00 87 1011.6
20210917085944 56 261 1.0 1.0 0.00 0.00 0.00 87 1011.7
20210917085424 56 302 1.0 3.0 0.00 0.00 0.00 87 1011.8
20210917084902 56 275 1.0 2.0 0.00 0.00 0.00 87 1011.9
20210917084340 57 282 1.0 1.0 0.00 0.00 0.00 87 1011.8
20210917083817 57 0 0.0 2.0 0.00 0.00 0.00 87 1011.7
20210917083256 56 292 1.0 1.0 0.00 0.00 0.00 87 1011.7
20210917082734 57 257 1.0 2.0 0.00 0.00 0.00 87 1011.8
20210917082211 57 271 1.0 1.0 0.00 0.00 0.00 87 1011.8
20210917081650 57 270 1.0 1.0 0.00 0.00 0.00 87 1011.8
20210917081127 57 306 1.0 2.0 0.00 0.00 0.00 87 1011.8
20210917080605 57 238 1.0 2.0 0.00 0.00 0.00 87 1011.8
20210917080043 57 256 1.0 3.0 0.00 0.00 0.00 87 1011.7
20210917075522 57 257 1.0 2.0 0.00 0.00 0.00 87 1011.7
20210917075000 57 312 1.0 3.0 0.00 0.00 0.00 87 1011.8
20210917074438 57 0 0.0 1.0 0.00 0.00 0.00 87 1011.8
20210917073915 57 0 0.0 1.0 0.00 0.00 0.00 87 1011.7
20210917073354 57 294 1.0 3.0 0.00 0.00 0.00 86 1011.8
20210917072831 57 279 1.0 3.0 0.00 0.00 0.00 86 1011.8
20210917072310 57 242 1.0 2.0 0.00 0.00 0.00 86 1011.8
20210917071750 57 240 1.0 1.0 0.00 0.00 0.00 86 1011.8
20210917071227 57 0 0.0 2.0 0.00 0.00 0.00 86 1011.8
20210917070705 57 243 1.0 2.0 0.00 0.00 0.00 86 1011.8
20210917070143 57 269 1.0 2.0 0.00 0.00 0.00 86 1011.7
20210917065622 57 0 0.0 1.0 0.00 0.00 0.00 86 1011.7
20210917065100 57 220 1.0 4.0 0.00 0.00 0.00 86 1011.5
20210917064538 57 269 1.0 3.0 0.00 0.00 0.00 86 1011.5
20210917064016 57 289 1.0 2.0 0.00 0.00 0.00 86 1011.4
20210917063454 57 0 0.0 1.0 0.00 0.00 0.00 86 1011.4
20210917062933 57 285 1.0 5.0 0.00 0.00 0.00 86 1011.3
20210917062412 57 306 1.0 3.0 0.00 0.00 0.00 87 1011.3
20210917061852 57 194 1.0 3.0 0.00 0.00 0.00 87 1011.3
20210917061332 57 0 0.0 1.0 0.00 0.00 0.00 87 1011.3
20210917060810 57 267 1.0 1.0 0.00 0.00 0.00 87 1011.2
20210917060249 57 269 1.0 1.0 0.00 0.00 0.00 87 1011.1
20210917055726 57 238 1.0 1.0 0.00 0.00 0.00 87 1011.1
20210917055207 57 292 1.0 1.0 0.00 0.00 0.00 88 1011.1
20210917054644 57 0 0.0 1.0 0.00 0.00 0.00 87 1011.0
20210917054122 57 305 1.0 2.0 0.00 0.00 0.00 87 1011.0
20210917053600 57 260 1.0 2.0 0.00 0.00 0.00 87 1011.0
20210917053039 57 277 1.0 2.0 0.00 0.00 0.00 87 1010.9
20210917052516 57 266 1.0 1.0 0.00 0.00 0.00 87 1010.9
20210917051954 57 295 1.0 2.0 0.00 0.00 0.00 87 1010.9
20210917051432 57 271 1.0 1.0 0.00 0.00 0.00 87 1010.8
20210917050912 57 0 0.0 0.0 0.00 0.00 0.00 87 1010.8
20210917050352 57 0 0.0 3.0 0.00 0.00 0.00 87 1010.8
20210917045830 57 285 1.0 2.0 0.00 0.00 0.00 87 1010.8
20210917045308 57 275 1.0 1.0 0.00 0.00 0.00 87 1010.9
20210917044748 57 278 1.0 1.0 0.00 0.00 0.00 86 1010.9
20210917044226 57 267 1.0 1.0 0.00 0.00 0.00 86 1010.9
20210917043706 57 268 1.0 1.0 0.00 0.00 0.00 86 1010.9
20210917043145 57 0 0.0 1.0 0.00 0.00 0.00 86 1010.9
20210917042622 57 302 1.0 3.0 0.00 0.00 0.00 86 1011.0
20210917042100 57 276 1.0 1.0 0.00 0.00 0.00 86 1010.9
20210917041540 57 284 1.0 2.0 0.00 0.00 0.00 86 1010.8
20210917041018 57 267 1.0 3.0 0.00 0.00 0.00 86 1010.8
20210917040458 57 261 1.0 2.0 0.00 0.00 0.00 86 1010.7
20210917035936 57 0 0.0 2.0 0.00 0.00 0.00 86 1010.6
20210917035414 57 260 1.0 1.0 0.00 0.00 0.00 85 1010.6
20210917034852 57 265 1.0 3.0 0.00 0.00 0.00 85 1010.6
20210917034331 58 271 1.0 2.0 0.00 0.00 0.00 85 1010.5
20210917033810 58 282 1.0 2.0 0.00 0.00 0.00 85 1010.4
20210917033248 58 242 1.0 1.0 0.00 0.00 0.00 85 1010.3
20210917032728 58 288 1.0 4.0 0.00 0.00 0.00 85 1010.3
20210917032208 58 0 0.0 3.0 0.00 0.00 0.00 85 1010.2
20210917031646 58 277 1.0 2.0 0.00 0.00 0.00 85 1010.2
20210917031124 58 273 1.0 2.0 0.00 0.00 0.00 84 1010.2
20210917030604 58 225 1.0 3.0 0.00 0.00 0.00 84 1010.1
20210917030042 58 319 1.0 2.0 0.00 0.00 0.00 84 1010.0
20210917025522 58 248 1.0 2.0 0.00 0.00 0.00 84 1010.0
20210917025000 58 0 0.0 2.0 0.00 0.00 0.00 84 1009.9
20210917024439 59 283 2.0 5.0 0.00 0.00 0.00 83 1009.9
20210917023917 59 323 1.0 3.0 0.00 0.00 0.00 83 1009.8
20210917023354 59 261 1.0 3.0 0.00 0.00 0.00 83 1009.8
20210917022832 59 245 1.0 6.0 0.00 0.00 0.00 82 1009.8
20210917022310 59 241 1.0 4.0 0.00 0.00 0.00 82 1009.7
20210917021749 59 197 1.0 4.0 0.00 0.00 0.00 82 1009.6
20210917021228 59 307 2.0 5.0 0.00 0.00 0.00 81 1009.6
20210917020708 60 274 1.0 3.0 0.00 0.00 0.00 81 1009.5
20210917020146 60 210 1.0 5.0 0.00 0.00 0.00 81 1009.5
20210917015626 60 288 1.0 3.0 0.00 0.00 0.00 81 1009.5
20210917015104 60 206 1.0 5.0 0.00 0.00 0.00 80 1009.5
20210917014544 60 160 1.0 4.0 0.00 0.00 0.00 80 1009.6
20210917014022 60 230 1.0 2.0 0.00 0.00 0.00 80 1009.5
20210917013500 61 241 1.0 4.0 0.00 0.00 0.00 79 1009.6
20210917012938 61 277 2.0 6.0 0.00 0.00 0.00 78 1009.6
20210917012416 61 255 3.0 5.0 0.00 0.00 0.00 78 1009.6
20210917011855 61 233 1.0 7.0 0.00 0.00 0.00 77 1009.6
20210917011332 62 258 2.0 6.0 0.00 0.00 0.00 76 1009.6
20210917010812 62 217 1.0 5.0 0.00 0.00 0.00 75 1009.7
20210917010252 63 249 1.0 5.0 0.00 0.00 0.00 75 1009.6
20210917005730 63 211 2.0 9.0 0.00 0.00 0.00 75 1009.6
20210917005208 63 252 1.0 5.0 0.00 0.00 0.00 74 1009.6
20210917004646 64 293 1.0 5.0 0.00 0.00 0.00 73 1009.5
20210917004126 64 264 1.0 6.0 0.00 0.00 0.00 73 1009.4
20210917003606 64 226 1.0 7.0 0.00 0.00 0.00 72 1009.4
20210917003044 65 254 2.0 6.0 0.00 0.00 0.00 71 1009.5
20210917002522 65 261 2.0 6.0 0.00 0.00 0.00 71 1009.3
20210917002002 65 270 1.0 6.0 0.00 0.00 0.00 70 1009.3
20210917001440 66 235 1.0 4.0 0.00 0.00 0.00 70 1009.3
20210917000918 66 236 2.0 5.0 0.00 0.00 0.00 69 1009.4
20210917000358 66 249 1.0 6.0 0.00 0.00 0.00 70 1009.3
20210916235836 66 263 2.0 4.0 0.00 0.00 0.00 69 1009.3
20210916235314 66 240 1.0 5.0 0.00 0.00 0.00 69 1009.3
20210916234754 67 272 1.0 5.0 0.00 0.00 0.00 69 1009.4
20210916234232 66 259 2.0 7.0 0.00 0.00 0.00 70 1009.4
20210916233710 66 274 2.0 5.0 0.00 0.00 0.00 69 1009.4
20210916233150 67 247 1.0 5.0 0.00 0.00 0.00 68 1009.6
20210916232630 67 273 1.0 8.0 0.00 0.00 0.00 68 1009.5
20210916232108 67 251 1.0 4.0 0.00 0.00 0.00 69 1009.6
20210916231546 67 271 1.0 4.0 0.00 0.00 0.00 69 1009.5
20210916231026 67 253 1.0 4.0 0.00 0.00 0.00 68 1009.7
20210916230504 67 216 2.0 6.0 0.00 0.00 0.00 69 1009.8
20210916225942 67 276 2.0 6.0 0.00 0.00 0.00 68 1009.8
20210916225422 68 228 1.0 4.0 0.00 0.00 0.00 68 1009.9
20210916224900 67 228 1.0 6.0 0.00 0.00 0.00 69 1009.9
20210916224338 67 246 2.0 6.0 0.00 0.00 0.00 69 1009.8
20210916223816 67 205 1.0 6.0 0.00 0.00 0.00 67 1009.8
20210916223255 68 256 2.0 6.0 0.00 0.00 0.00 68 1009.9
20210916222732 67 254 1.0 7.0 0.00 0.00 0.00 69 1010.0
20210916222210 67 240 1.0 4.0 0.00 0.00 0.00 69 1010.0
20210916221650 67 273 2.0 6.0 0.00 0.00 0.00 69 1010.0
20210916221130 67 230 2.0 8.0 0.00 0.00 0.00 69 1010.1
20210916220610 67 245 2.0 8.0 0.00 0.00 0.00 68 1010.0
20210916220050 67 255 1.0 9.0 0.00 0.00 0.00 68 1010.1
20210916215530 67 199 1.0 4.0 0.00 0.00 0.00 67 1010.1
20210916215008 67 228 1.0 7.0 0.00 0.00 0.00 68 1010.1
20210916214446 67 293 1.0 7.0 0.00 0.00 0.00 67 1010.0
20210916213926 68 209 1.0 7.0 0.00 0.00 0.00 68 1010.2
20210916213404 67 252 1.0 6.0 0.00 0.00 0.00 67 1010.2
20210916212842 68 256 3.0 9.0 0.00 0.00 0.00 67 1010.3
20210916212320 68 231 1.0 8.0 0.00 0.00 0.00 67 1010.3
20210916211758 68 256 4.0 10.0 0.00 0.00 0.00 65 1010.3
20210916211236 68 186 1.0 7.0 0.00 0.00 0.00 66 1010.4
20210916210714 69 236 3.0 6.0 0.00 0.00 0.00 63 1010.4
20210916210152 69 219 1.0 6.0 0.00 0.00 0.00 65 1010.4
20210916205632 69 334 1.0 5.0 0.00 0.00 0.00 66 1010.5
20210916205110 69 126 1.0 4.0 0.00 0.00 0.00 67 1010.5
20210916204548 69 304 1.0 4.0 0.00 0.00 0.00 66 1010.4
20210916204028 69 189 1.0 5.0 0.00 0.00 0.00 66 1010.3
20210916203506 69 267 2.0 3.0 0.00 0.00 0.00 66 1010.3
20210916202944 69 56 1.0 4.0 0.00 0.00 0.00 67 1010.2
20210916202422 69 315 1.0 4.0 0.00 0.00 0.00 66 1010.3
20210916201900 70 237 1.0 6.0 0.00 0.00 0.00 65 1010.3
20210916201338 70 68 2.0 5.0 0.00 0.00 0.00 65 1010.3
20210916200818 70 296 1.0 3.0 0.00 0.00 0.00 64 1010.2
20210916200256 70 315 1.0 4.0 0.00 0.00 0.00 64 1010.2
20210916195736 70 260 1.0 3.0 0.00 0.00 0.00 63 1010.3
20210916195214 69 301 1.0 3.0 0.00 0.00 0.00 64 1010.3
20210916194652 69 231 1.0 6.0 0.00 0.00 0.00 64 1010.3
20210916194130 69 110 1.0 3.0 0.00 0.00 0.00 64 1010.3
20210916193608 69 226 1.0 2.0 0.00 0.00 0.00 64 1010.4
20210916193048 69 246 1.0 4.0 0.00 0.00 0.00 63 1010.4
20210916192526 69 285 2.0 4.0 0.00 0.00 0.00 63 1010.4
20210916192004 69 252 1.0 3.0 0.00 0.00 0.00 65 1010.5
20210916191442 69 230 2.0 4.0 0.00 0.00 0.00 65 1010.5
20210916190922 68 278 1.0 2.0 0.00 0.00 0.00 67 1010.5
20210916190402 67 266 1.0 6.0 0.00 0.00 0.00 67 1010.6
20210916185842 67 333 1.0 1.0 0.00 0.00 0.00 67 1010.7
20210916185322 67 322 2.0 4.0 0.00 0.00 0.00 66 1010.8
20210916184802 67 338 1.0 5.0 0.00 0.00 0.00 66 1010.8
20210916184241 67 0 0.0 3.0 0.00 0.00 0.00 68 1010.8
20210916183720 66 260 1.0 4.0 0.00 0.00 0.00 69 1010.9
20210916183158 65 313 2.0 4.0 0.00 0.00 0.00 70 1010.8
20210916182636 66 258 1.0 2.0 0.00 0.00 0.00 71 1010.8
20210916182115 65 0 0.0 3.0 0.00 0.00 0.00 73 1010.9
20210916181554 64 218 1.0 2.0 0.00 0.00 0.00 72 1011.0
20210916181032 64 280 1.0 4.0 0.00 0.00 0.00 73 1010.9
20210916180510 64 269 1.0 5.0 0.00 0.00 0.00 73 1010.9
20210916175950 64 286 1.0 4.0 0.00 0.00 0.00 73 1010.9
20210916175430 64 244 1.0 2.0 0.00 0.00 0.00 72 1011.0
20210916174908 63 255 1.0 3.0 0.00 0.00 0.00 74 1011.0
20210916174347 63 228 1.0 6.0 0.00 0.00 0.00 74 1011.0
20210916173826 63 212 1.0 4.0 0.00 0.00 0.00 74 1010.9
20210916173306 63 287 1.0 3.0 0.00 0.00 0.00 75 1010.9
20210916172744 63 298 1.0 3.0 0.00 0.00 0.00 75 1010.9
20210916172222 63 242 1.0 4.0 0.00 0.00 0.00 75 1011.0